TimeEDT,TemperatureF,Dew PointF,Humidity,Sea Level PressureIn,VisibilityMPH,Wind Direction,Wind SpeedMPH,Gust SpeedMPH,PrecipitationIn,Events,Conditions,WindDirDegrees,DateUTC
12:53 AM,62.1,42.1,48,30.02,10.0,WSW,9.2,-,N/A,,Clear,240,2012-04-25 04:53:00
1:53 AM,61.0,43.0,52,30.01,10.0,WSW,9.2,-,N/A,,Clear,250,2012-04-25 05:53:00
2:53 AM,61.0,44.1,54,30.01,10.0,West,8.1,-,N/A,,Clear,260,2012-04-25 06:53:00
3:53 AM,59.0,44.1,58,30.01,10.0,WSW,3.5,-,N/A,,Clear,250,2012-04-25 07:53:00
4:53 AM,57.0,44.1,62,30.01,10.0,Calm,Calm,-,N/A,,Clear,0,2012-04-25 08:53:00
5:53 AM,55.9,44.1,64,30.03,10.0,NW,6.9,-,N/A,,Clear,320,2012-04-25 09:53:00
6:53 AM,54.0,44.1,69,30.05,10.0,Calm,Calm,-,N/A,,Clear,0,2012-04-25 10:53:00
8:53 AM,64.0,46.0,52,30.10,10.0,West,8.1,-,N/A,,Clear,280,2012-04-25 12:53:00
9:53 AM,68.0,45.0,43,30.11,10.0,West,6.9,-,N/A,,Clear,270,2012-04-25 13:53:00
10:53 AM,72.0,44.1,37,30.11,10.0,Variable,6.9,-,N/A,,Clear,0,2012-04-25 14:53:00
11:53 AM,73.9,44.1,34,30.11,10.0,WSW,11.5,16.1,N/A,,Clear,240,2012-04-25 15:53:00
12:53 PM,77.0,44.1,31,30.09,10.0,WSW,9.2,-,N/A,,Clear,250,2012-04-25 16:53:00
1:53 PM,79.0,44.1,29,30.07,10.0,WSW,8.1,-,N/A,,Clear,240,2012-04-25 17:53:00
3:53 PM,82.0,44.1,26,30.03,10.0,SW,12.7,21.9,N/A,,Clear,220,2012-04-25 19:53:00
4:53 PM,82.9,45.0,26,30.01,10.0,SW,12.7,20.7,N/A,,Clear,230,2012-04-25 20:53:00
5:53 PM,82.9,46.0,27,30.00,10.0,WSW,12.7,21.9,N/A,,Clear,240,2012-04-25 21:53:00
6:53 PM,82.0,46.9,29,29.99,10.0,WSW,11.5,-,N/A,,Clear,240,2012-04-25 22:53:00
7:53 PM,80.1,48.0,32,30.00,9.0,WSW,6.9,-,N/A,,Clear,240,2012-04-25 23:53:00
8:53 PM,77.0,48.9,37,30.02,10.0,WSW,11.5,-,N/A,,Clear,240,2012-04-26 00:53:00
9:53 PM,75.0,46.9,37,30.04,10.0,WSW,11.5,-,N/A,,Clear,240,2012-04-26 01:53:00
10:53 PM,72.0,48.0,43,30.06,10.0,WSW,10.4,-,N/A,,Clear,250,2012-04-26 02:53:00
11:53 PM,69.1,48.9,49,30.08,10.0,WSW,12.7,-,N/A,,Clear,250,2012-04-26 03:53:00